Showing default

COSMOS 2169, 21783

Orbit data source: Space-Track

COSMOS 2169, 21783 is a payload satellite owned by UNKS RF (CIS) in LEO that was launched on Tue, 12 Nov 1991 UTC via a TSIKLON-3 launch vehicle from the Plesetsk Missile And Space Complex (PKMTR). Payload-class satellites include a variety of spacecraft equipped with specific instruments for various scientific and technological missions. These include communications satellites like Starlink; space stations such as the ISS; scientific satellites like the Hubble; Earth observation satellites from companies like Planet Labs, Umbra, and HawkEye 360; GPS; miniature CubeSats for education and research; and military/defense satellites.

Loading next visibility...
Identifier
21783, 1991-077E
Orbit
LEO
Country
Flag of CISCIS
Related business
Manufacturer
NPO PM
Mission
Defense Communications
Bus & Motor
STRELA-3, Unknown motor
Mass
225 kg wet, 225 kg dry
Launch date (UTC)
1991-11-12 (34 years ago)
Launch vehicle
TSIKLON-3
Launch site
Plesetsk Missile And Space Complex (PKMTR)
Object type
Payload
Rocket body
Debris
Shape & HBR
Cyl, 0.8 m
Radar Cross Section
1.257 m², Medium (>0.1 m² and < 1m²)

Expand to show TLE details & history
Last TLE update: 10 hours ago

TLE from 10 hours ago
0 COSMOS 2169
1 21783U 91077E   25259.28177201  .00000022  00000-0  61725-4 0  9995
2 21783  82.6071  23.9554 0017171 234.0144 125.9358 12.66305267564129
Epoch: 2025-09-16T06:45Z
TLE epoch observation values (Epoch: 2025-09-16T06:45:45.101Z)
Latitude
-0.00001°
Longitude
-72.95684°
Altitude
1,407.615 km
Speed
7.153 km/s
True Right ascension
01h 35m 49s
True Declination
0° 00' 00"
Sunlit
Object was in full shadow at epoch
Visualization orbit readout
Latitude
Unknown
Longitude
Unknown
Altitude
Unknown
Speed
Unknown
Apparent Right ascension
Unknown
Apparent Declination
Unknown
Sunlit
N/A
Visualization observer readout
Local Sidereal Time
09:56:29
Azimuth
Unknown
Elevation
Unknown
Doppler factor
Unknown
Orbital elements
Apogee altitude
1,407.687 km
Perigee altitude
1,380.995 km
Semi-major axis
7,772.478 km
Eccentricity
0.00172
Inclination
82.6071°
RAAN
23.9554°
Arg. of periapsis
234.0144°
True anomaly
126.09492°
Mean anomaly
125.9358°
Eccentric anomaly
126.01538°
Mean motion
3.16741 °/min
Orbital period
113.66 mins
BSTAR
0.000061725
Loading maneuver chart data...
Computing Atmospheric mass density...
Loading historical data...
Loading historical data...
Loading historical data...
Loading historical data...
Loading historical data...
Loading historical data...
Loading historical data...

Documentation

Showing up to 5 results
|